Zurück zum Katalog

STARLINK-3878

AktivKommunikationVLEO
NORAD 52479·PAYLOAD·🇺🇸 United States

Gestartet May 6, 2022 von Cape Canaveral Space Force Station

Loading…

Nächste Überflüge (nächste 24 Stunden)

TLE

AktuellSource: CelesTrak SupGP

Epoche: Sep 14, 2026, 20:32 UTC

1 52479C 22049AE  26257.85604167  .00029147  00000+0  93758-3 0  2577
2 52479  53.1583 276.1609 0001081  84.0826 230.7092 15.31677757    16

Verfolge STARLINK-3878 in Echtzeit mit AllMySat

Download on the App Store